Location: Ay?beleni
(36.6500°N, 30.3000°E)
Time: 22:43:57
(UTC+00:00)

CZ-4C R/B - Pass Details

Date: 09 April 2020
Orbit: 636 x 1365 km, 63.4° (Epoch: 06 June)

Event Time Altitude Azimuth Distance (km) Brightness Sun altitude
Rises 19:06:52 0° 336° (NNW) 3,826 6.5 -29.7°
Reaches altitude 10° 19:09:57 10° 350° (N) 2,989 5.6 -30.2°
Maximum altitude 19:15:48 25° 44° (NE) 2,240 4.3 -31.1°
Enters shadow 19:16:31 25° 52° (NE) 2,273 4.2 -31.2°
